Regional Weather Roundup
Issued by NWS

Home | Current Version | Previous Version | Text Only | Print | Product List | Glossary Off
Versions: 1 2 3 4 5 6 7 8 9 10 11 12 13 14 15 16 17 18 19 20 21 22 23 24 25 26 27 28 29 30 31 32 33 34 35 36 37 38 39 40 41 42 43 44 45 46 47 48 49 50

000
ASUS43 KDTX 220201
RWRMI
MICHIGAN HOURLY REGIONAL WEATHER ROUNDUP
NATIONAL WEATHER SERVICE DETROIT/PONTIAC MI
1000 PM EDT TUE OCT 21 2014

NOTE: "FAIR" INDICATES FEW OR NO CLOUDS BELOW 12,000 FEET WITH NO
SIGNIFICANT WEATHER AND/OR OBSTRUCTION TO VISIBILITY.

MIZ047>049-052>055-059>063-066>070-074>076-081>083-220300-
SOUTHEAST LOWER MICHIGAN

CITY           SKY/WX    TMP DP  RH WIND       PRES   REMARKS
ADRIAN         CLOUDY    44  36  73 NE10      30.21R
ALMA           CLEAR     34  32  92 CALM      30.26R
ANN ARBOR      CLOUDY    44  34  67 N12       30.21R
BAD AXE        CLOUDY    43  37  78 NE13      30.24R
CARO           MOCLDY    42  36  79 CALM      30.23R
DETROIT CITY   CLOUDY    47  36  65 N13G28    30.19R
DETROIT        CLOUDY    45  36  70 N14       30.20R
FLINT          CLOUDY    45  35  68 N9        30.24R
GROSSE ILE     CLOUDY    46  37  71 N20G25    30.17R
HILLSDALE      CLOUDY    43  37  80 N5        30.21R
HOWELL         PTCLDY    41  34  78 N3        30.22R

CITY           SKY/WX    TMP DP  RH WIND       PRES   REMARKS
JACKSON        CLOUDY    40  35  83 N3        30.22R
LAMBERTVILLE   CLOUDY    45  36  70 N6        30.20R
LANSING        CLEAR     39  33  79 NE5       30.25R
LAPEER         CLOUDY    43  35  73 N9        30.22R
MASON          CLEAR     39  34  84 N3        30.23R
MONROE         CLOUDY    45  37  76 N13G18    30.18R
MT. CLEMENS    CLOUDY    45  39  81 N14G22    30.17R
PONTIAC        CLOUDY    43  34  70 N16       30.19R
PORT HOPE        N/A     46  37  71 N20G26    30.23R
PORT HURON     DRIZZLE   45  43  93 N7        30.18R
TRI CITIES     CLEAR     42  33  70 N12       30.26R
TROY           CLOUDY    45  36  70 N12G20    30.21R
SAGINAW HB     CLOUDY    43  34  70 N6        30.24S
$$
MIZ043>046-050>051-056>058-064>065-071>073-077>080-220300-
SOUTHWEST LOWER MICHIGAN

CITY           SKY/WX    TMP DP  RH WIND       PRES   REMARKS
BATTLE CREEK   CLEAR     39  33  79 CALM      30.23R
BENTON HARBOR  CLEAR     36  35  96 CALM      30.24R
BIG RAPIDS     CLEAR     40  37  90 CALM      30.25R
COLDWATER      CLEAR     40  37  87 CALM      30.22R
FREMONT        FAIR      41  28  60 N3        30.25R
HOLLAND        CLEAR     39  35  86 W3        30.24R
GRAND RAPIDS   CLEAR     37  35  92 E5        30.24R WCI  33
IONIA          FAIR      40  35  81 E5        30.24R
KALAMAZOO      CLEAR     37  35  92 CALM      30.23R
LUDINGTON      CLEAR     38  35  86 NE3       30.28R
MARSHALL       CLEAR     37  34  88 CALM      30.23R
MOUNT PLEASANT CLEAR     39  32  75 NE5       30.26R
MUSKEGON       CLEAR     43  35  73 N6        30.26R
SOUTH HAVEN    CLEAR     37  36  96 CALM      30.24R
$$
MIZ016>042-220300-
NORTHERN LOWER MICHIGAN

CITY           SKY/WX    TMP DP  RH WIND       PRES   REMARKS
BEAVER ISLAND  CLEAR     34  32  94 CALM      30.30R
BELLAIRE       CLEAR     33  32  94 CALM      30.30R
CADILLAC       CLEAR     34  32  94 CALM      30.25R
CHARLEVOIX     CLEAR     37  33  85 CALM      30.31R
FRANKFORT      CLEAR     41  32  72 NE5       30.28R
GAYLORD        CLEAR     35  28  75 NE5       30.27R WCI  31
GRAYLING       CLEAR     29  28  94 CALM      30.28S
HARBOR SPRINGS CLEAR     35  30  82 CALM      30.30R
HOUGHTON LAKE  CLEAR     34  27  75 NE3       30.28R
MANISTEE       CLEAR     37  28  70 CALM      30.29R
OSCODA         CLOUDY    40  32  75 N6        30.26R
PELLSTON       CLEAR     28  27  96 CALM      30.30R
TRAVERSE CITY  CLEAR     39  32  76 E3        30.27R
$$
MIZ007>008-015-220300-
EASTERN UPPER MICHIGAN

CITY           SKY/WX    TMP DP  RH WIND       PRES   REMARKS
KINROSS        CLEAR     36  30  80 E7        30.31R WCI  30
MACKINAC ISLAN CLEAR     41  32  71 NE9       30.30R
NEWBERRY       CLEAR     34  31  87 N3        30.30R
S. S. MARIE    CLEAR     38  28  67 NE7       30.31R WCI  33
$$
MIZ004>006-011>014-085-220300-
CENTRAL UPPER MICHIGAN

CITY           SKY/WX    TMP DP  RH WIND       PRES   REMARKS
MANISTIQUE     CLEAR     31  29  92 N5        30.31R WCI  26
ESCANABA       CLEAR     36  28  75 NE5       30.30R WCI  32
MENOMINEE      CLEAR     39  30  70 NE6       30.29R WCI  35
SAWYER-GWINN   CLEAR     30  28  93 NW3       30.29R
$$
MIZ001>003-009>011-084-220300-
WESTERN UPPER MICHIGAN

CITY           SKY/WX    TMP DP  RH WIND       PRES   REMARKS
IRON MOUNTAIN  CLEAR     36  28  73 E6        30.28R WCI  31
HOUGHTON       CLEAR     35  30  82 E8        30.27R WCI  29
COPPER HARBOR    N/A     34  30  85 CALM      30.30R
IRONWOOD       CLEAR     34  32  93 CALM      30.22R
$$

ABBREVIATIONS USED IN REMARKS
   TC - TEMPERATURE IN CELSIUS
  WCI - WIND CHILL INDEX
   HX - HEAT INDEX
  VSB - VISIBILITY




USA.gov is the U.S. government's official web portal to all federal, state and local government web resources and services.